Theta_e
334 341 348 349 347 346 344 344 344 345 344 346 344 343 343 345 346 348 349 350 350 348 348 348 347 346 346 345 344 344 343 343 343 343 343 344 343 343 343 342 341 338 343
337 343 346 349 348 345 343 344 344 341 342 343 343 342 342 342 344 346 347 348 348 347 346 345 344 344 344 344 342 342 341 340 340 341 340 341 341 339 340 340 341 337 341
339 343 344 347 348 345 343 343 344 341 343 345 342 340 340 340 341 343 346 348 347 346 344 342 342 342 342 342 341 340 339 339 337 337 336 331 334 339 338 339 339 338 337
340 342 342 345 348 345 343 343 344 343 342 344 341 339 338 338 338 338 341 344 345 345 343 341 341 341 342 341 340 339 338 337 335 334 328 329 332 337 336 336 336 336 335
338 341 340 344 348 346 345 343 344 343 341 342 339 338 339 337 336 336 337 338 340 342 340 340 341 341 341 340 339 338 337 335 333 328 326 328 329 334 335 336 335 336 336
336 338 341 345 348 347 347 345 344 343 339 339 339 337 336 336 337 336 336 336 336 336 337 339 340 340 340 339 338 336 334 332 327 322 323 327 329 335 335 334 333 333 334
333 336 339 343 346 347 347 345 344 343 340 338 339 338 337 336 335 336 335 335 335 335 336 339 339 338 338 337 336 334 332 329 321 321 322 325 328 335 335 332 331 331 331
333 335 337 336 340 343 345 345 344 343 341 339 338 338 338 338 335 335 334 334 334 335 336 338 337 336 337 335 334 332 329 326 321 321 322 324 334 334 334 332 330 329 329
334 334 333 335 336 336 339 341 342 342 341 340 339 338 338 338 338 336 336 334 334 335 336 336 335 334 334 334 332 331 328 325 319 322 325 324 333 332 332 331 328 328 328
332 331 330 331 332 333 334 333 336 338 338 338 336 333 331 332 333 333 331 334 334 335 335 335 333 332 332 331 330 328 325 324 320 321 322 325 331 330 327 327 327 326 326
332 329 329 330 330 330 331 329 332 333 332 331 329 326 324 325 326 327 329 333 332 332 333 332 330 329 326 325 326 326 323 319 319 320 321 328 329 327 327 326 325 325 324
328 330 328 328 328 329 333 329 331 335 330 328 326 324 324 323 324 326 324 328 330 329 332 331 329 325 320 318 317 320 317 318 318 319 321 327 327 327 325 324 324 323 322
329 330 328 328 328 328 328 327 327 332 333 327 325 324 323 323 322 322 321 320 320 320 320 320 317 315 314 316 316 316 317 317 316 318 320 327 326 325 325 324 324 323 322
327 329 329 328 328 327 327 326 326 327 330 325 325 325 322 320 319 319 319 318 317 316 313 313 312 313 314 315 315 315 316 315 315 316 317 321 326 325 324 324 323 323 322
327 329 329 328 328 328 326 325 325 324 329 326 325 326 322 320 318 317 317 317 316 316 313 311 311 312 312 313 314 315 315 315 315 316 315 316 322 327 326 326 326 325 324
329 329 330 329 329 329 326 325 325 324 325 326 326 325 326 321 319 318 316 316 316 315 316 314 312 312 311 312 313 314 314 314 315 316 316 316 320 324 327 327 328 328 327
329 330 330 329 330 329 328 326 327 326 326 324 327 327 325 323 320 319 317 316 317 316 314 312 311 311 310 311 311 313 313 314 314 314 315 315 316 318 323 327 328 329 329
329 329 331 331 329 330 329 328 329 329 327 327 326 329 330 327 324 321 319 317 317 315 313 311 310 309 308 308 309 310 310 311 312 313 314 315 315 315 318 322 325 327 328
326 329 330 330 329 330 330 330 330 332 331 331 330 330 330 329 327 325 320 318 316 314 312 310 309 309 307 307 307 308 308 308 309 312 311 313 313 315 314 318 319 320 324
324 327 330 331 330 329 329 328 328 332 332 332 331 329 329 329 327 326 323 322 319 314 311 309 309 309 310 307 307 307 307 308 307 307 309 309 310 313 315 314 315 314 317
320 324 328 329 329 328 325 326 323 324 329 331 332 331 329 329 328 325 324 323 321 317 316 314 312 311 309 307 307 305 305 305 305 306 306 306 308 309 310 311 312 312 315
317 323 326 328 328 328 329 328 325 324 324 327 331 331 330 328 328 326 325 323 321 319 317 315 312 308 309 309 308 304 305 307 306 306 306 307 306 306 306 308 309 309 310
312 318 324 326 327 328 329 325 321 322 323 325 325 329 329 329 328 327 326 325 322 321 318 316 313 312 311 307 308 310 304 303 302 305 305 304 304 303 303 304 305 306 307
301 303 313 319 322 326 326 325 325 323 322 321 322 324 326 328 328 327 326 325 324 322 320 319 315 314 313 310 306 307 308 308 304 302 303 302 302 302 303 303 303 303 303
299 300 299 300 306 319 324 325 324 319 320 320 323 325 326 325 326 326 325 324 323 322 321 319 315 313 313 312 310 306 305 304 303 302 299 300 300 300 301 301 300 300 300
301 303 303 303 301 299 314 321 323 322 320 321 323 323 323 324 323 324 323 323 322 320 319 318 317 315 313 313 311 309 306 305 302 300 299 299 300 300 298 299 298 299 299
Wind_Speed
3 4 9 10 14 13 13 12 13 14 14 15 16 15 15 14 16 16 17 17 18 19 20 21 20 20 20 21 21 21 21 21 21 21 20 20 20 20 19 18 15 11 18
6 4 8 9 13 14 13 12 12 13 13 13 16 16 16 14 15 17 16 15 17 18 20 20 19 18 18 20 20 20 20 20 19 17 16 15 17 16 17 17 15 13 17
8 6 6 9 12 14 13 11 13 13 14 14 17 16 16 15 14 15 16 15 17 19 18 17 17 16 17 18 18 18 19 19 18 16 13 6 10 18 18 18 17 16 15
9 6 7 9 13 14 13 11 12 12 13 15 17 15 16 16 15 15 14 15 16 16 17 16 15 14 17 18 17 17 18 17 16 14 6 6 7 15 15 15 15 14 14
8 7 9 10 12 13 12 12 11 13 12 13 14 16 15 15 15 15 14 13 14 15 13 14 15 15 16 17 17 17 17 16 15 10 7 6 5 12 14 15 14 15 15
6 7 9 12 12 12 11 12 12 13 14 13 14 14 14 14 14 13 14 13 12 12 12 13 15 14 14 17 16 15 15 15 11 7 6 8 5 12 13 14 13 14 13
5 5 7 11 11 10 11 12 12 12 13 13 13 14 13 14 13 13 12 12 12 12 12 14 14 14 14 15 14 14 13 12 6 6 6 6 5 12 13 12 12 12 12
7 5 5 9 10 11 11 12 12 12 12 12 12 12 11 13 13 12 12 11 11 13 12 13 13 14 13 13 13 12 11 10 7 6 6 5 8 11 11 12 11 11 11
5 6 5 5 7 9 10 10 11 11 10 11 11 10 9 10 12 11 9 10 10 12 11 12 12 13 15 13 10 9 9 9 6 4 5 4 10 10 12 11 10 9 10
4 4 5 4 4 5 6 10 10 10 10 10 9 9 8 9 10 9 8 8 9 10 9 9 10 10 11 11 8 8 8 8 5 5 4 4 9 9 9 8 8 8 7
5 3 5 6 5 5 5 5 9 10 9 8 7 8 6 4 5 6 6 8 7 6 8 8 9 10 9 9 10 7 6 3 3 3 2 7 7 7 6 6 6 6 6
12 8 5 5 5 5 4 4 4 5 4 4 5 5 3 4 4 4 5 7 7 6 5 6 7 8 6 3 4 6 3 3 3 2 1 4 5 5 4 4 4 4 3
14 9 7 6 5 6 5 3 2 3 4 4 6 5 4 3 2 3 2 2 2 4 2 3 4 4 5 4 4 3 4 2 1 1 3 1 2 3 3 2 2 2 1
10 11 8 7 6 5 3 3 4 4 4 3 4 5 4 3 3 3 2 3 2 1 1 2 2 3 4 4 4 3 2 2 1 1 3 6 4 2 2 2 2 3 4
11 10 10 8 8 6 5 4 4 4 4 4 4 4 4 4 4 3 3 2 2 2 2 2 1 1 2 3 2 2 1 1 1 1 2 7 7 7 6 6 6 6 6
11 11 10 10 9 7 6 6 4 3 4 3 4 4 5 4 4 4 3 3 3 3 2 2 2 2 2 2 3 3 3 3 2 3 3 4 8 9 10 10 9 9 9
11 11 12 11 10 11 9 8 5 5 5 4 4 5 6 5 5 5 4 3 4 3 3 2 1 1 2 2 3 4 3 4 4 4 4 4 4 7 11 13 13 13 13
12 12 11 10 10 10 9 8 6 6 5 5 4 5 8 8 7 5 4 4 4 3 3 2 2 2 2 2 3 4 4 4 5 6 5 4 4 4 6 11 14 15 16
13 13 12 11 12 12 9 7 6 8 6 5 5 4 6 6 6 5 4 4 4 3 3 2 2 2 2 2 4 4 4 4 5 4 7 6 5 4 4 7 11 11 15
12 13 13 12 12 11 6 4 3 4 5 4 4 5 6 5 6 5 4 4 4 3 3 2 4 3 3 2 3 5 5 5 4 5 6 4 5 6 5 5 4 4 10
8 10 13 13 12 9 5 5 3 3 3 4 4 6 6 5 6 6 4 4 5 5 6 5 4 5 2 0 3 4 4 5 5 4 3 4 5 5 6 5 3 3 4
12 13 12 13 12 11 8 6 4 4 3 3 5 6 7 7 7 6 6 5 6 4 4 4 3 1 1 3 0 0 4 5 3 1 2 2 4 4 4 5 5 6 5
9 11 12 13 13 12 12 4 3 3 2 3 3 4 6 8 8 8 8 6 6 6 6 5 5 6 3 3 4 2 2 4 3 2 3 3 4 2 3 4 5 5 6
6 5 6 6 7 8 9 9 11 8 7 4 4 3 5 9 9 8 8 8 7 5 6 7 5 5 4 4 1 4 3 2 3 4 2 3 2 4 5 4 5 6 6
6 5 5 5 5 5 9 10 8 5 4 3 3 5 6 4 6 7 6 6 6 5 5 5 4 5 4 3 3 2 2 1 3 4 3 5 3 3 4 4 4 4 5
4 5 3 5 4 5 6 9 12 11 8 5 4 4 3 4 3 4 5 5 4 4 5 4 5 5 5 4 2 3 3 2 2 3 3 3 4 4 3 5 4 5 5
Wind_Direction
194 164 123 121 114 102 95 96 96 95 90 88 86 80 80 80 78 83 81 78 77 82 82 79 77 76 75 76 76 74 73 70 66 65 65 66 66 64 61 58 54 55 59
133 138 126 113 116 105 100 96 98 93 92 92 90 84 82 85 83 76 83 89 86 82 80 78 75 74 78 83 78 76 75 71 65 59 57 55 66 63 61 59 60 60 58
132 128 115 114 119 112 107 100 94 99 91 94 89 86 87 81 82 79 75 83 85 88 83 83 76 78 82 89 84 81 77 73 66 58 51 46 67 67 68 64 64 62 61
128 125 115 120 122 120 116 108 97 96 92 86 89 92 90 88 89 92 72 72 82 88 88 86 75 80 93 90 89 87 80 74 66 55 42 36 67 66 64 64 63 60 60
127 134 133 125 131 127 125 115 108 102 97 94 92 93 86 84 88 90 89 69 68 70 90 89 80 85 91 96 93 88 86 77 65 53 40 39 33 74 69 67 62 58 60
129 137 141 129 137 131 129 124 117 111 109 103 101 95 93 90 87 87 87 95 90 89 94 99 84 80 88 96 94 89 83 78 66 47 38 28 41 72 74 71 64 59 54
130 139 139 133 133 133 127 129 123 118 114 110 108 107 106 104 96 93 92 92 90 93 97 94 83 78 85 93 94 90 83 73 61 49 38 26 30 70 75 69 64 59 56
142 139 138 138 133 132 121 138 128 121 119 116 115 113 111 121 111 103 100 95 95 96 102 94 82 77 84 88 94 93 84 74 60 55 40 21 50 63 61 65 62 58 58
132 134 134 144 135 130 128 128 129 127 126 124 120 116 99 85 110 103 96 101 100 95 97 94 81 75 78 86 87 87 76 72 67 60 52 25 38 53 59 54 51 61 57
125 139 139 131 135 134 139 136 138 137 130 122 116 109 99 91 103 100 93 100 98 100 94 89 87 78 73 70 66 93 82 63 67 62 50 35 42 47 47 49 55 55 57
157 175 151 150 153 141 133 140 138 139 133 126 121 117 104 109 105 101 105 103 107 92 97 80 75 63 56 42 33 84 72 60 59 69 48 45 45 45 57 53 57 56 51
180 191 174 159 159 148 137 145 132 142 140 138 131 131 120 125 130 124 119 112 105 92 75 70 61 43 45 42 28 46 46 54 40 35 27 52 46 48 50 45 49 51 60
183 185 187 168 167 161 150 149 144 153 168 154 152 150 144 122 116 109 107 92 86 75 49 47 27 26 30 24 43 38 39 40 35 5 312 14 26 30 36 54 38 11 2
178 187 193 169 171 177 151 162 158 167 182 175 175 165 153 155 155 150 148 151 137 110 105 45 19 359 9 13 17 46 41 36 240 289 299 297 289 295 297 258 276 280 277
179 186 190 177 178 178 168 168 170 182 184 190 177 181 157 171 173 165 177 178 185 168 170 180 285 329 340 335 340 350 342 309 337 254 272 285 282 278 275 270 269 269 270
187 186 184 189 180 174 179 176 181 176 189 197 193 193 181 179 177 181 184 195 201 199 202 201 220 257 285 313 308 314 310 310 301 279 263 269 273 271 274 275 273 271 271
193 187 184 189 184 181 188 184 178 183 184 193 208 196 191 187 196 187 193 202 213 209 206 189 258 289 299 310 295 309 303 293 288 278 265 261 272 271 266 270 275 277 277
184 187 188 190 186 189 189 186 187 185 182 197 202 201 199 190 188 190 195 216 209 189 184 185 200 251 274 274 292 287 293 301 294 280 274 260 252 250 271 271 270 275 279
188 186 189 191 189 191 194 186 183 177 179 192 189 193 197 190 185 193 187 212 195 196 196 190 218 198 240 273 275 280 279 275 267 268 268 264 267 262 259 261 262 267 274
192 191 189 190 195 191 189 187 192 181 174 184 184 192 194 192 183 190 196 193 180 174 202 209 215 226 245 252 299 293 273 259 257 254 265 296 274 267 255 245 250 259 260
193 187 191 186 194 180 172 190 195 210 190 193 195 194 186 193 196 189 194 192 180 189 205 200 193 221 260 177 326 321 305 268 274 280 266 274 286 288 287 288 292 278 274
196 193 192 195 186 191 191 195 174 163 201 197 189 196 198 195 196 193 188 198 190 202 215 204 176 195 246 173 222 82 330 333 329 317 261 295 311 321 322 315 312 298 287
203 191 189 192 189 190 190 151 104 105 108 170 194 191 197 200 205 202 203 199 193 185 210 200 186 193 214 203 201 187 245 251 322 320 334 321 334 312 314 316 303 295 292
196 164 180 175 179 189 170 183 196 198 193 198 193 192 205 199 204 205 208 200 201 200 211 209 191 189 161 220 202 229 271 179 247 306 333 298 298 296 303 306 305 301 300
151 155 152 154 185 187 183 189 192 192 185 174 179 201 216 200 199 197 203 201 199 196 213 202 185 193 187 191 188 167 189 231 232 245 278 306 304 267 280 285 282 277 291
137 132 164 163 194 199 202 191 192 196 183 183 180 199 214 213 207 204 199 198 182 188 195 204 207 198 196 206 184 192 168 206 205 225 253 270 269 300 265 278 281 292 296